Location: Taupo
(38.6830°S, 176.0830°E)
Time: 16:54:19
(UTC+12:00)

Cosmos 1862 - Pass Details

Date: 24 January 2019
Orbit: 538 x 558 km, 82.5° (Epoch: 18 April)

Event Time Altitude Azimuth Distance (km) Brightness Sun altitude
Rises 22:18:25 0° 191° (S) 2,752 7.8 -17.1°
Reaches altitude 10° 22:20:37 10° 193° (SSW) 1,846 6.8 -17.4°
Maximum altitude 22:24:39 68° 275° (W) 596 3.5 -18.0°
Enters shadow 22:26:42 27° 351° (N) 1,067 4.4 -18.2°
